{"data":{"norad_id":61944,"epoch":"2026-09-21T20:20:26.802816Z","epoch_age_seconds":69204,"freshness":"FRESH","line1":"1 61944U 24209F   26264.84753244  .00190092  00000+0  15375-2 0  9991","line2":"2 61944  53.1575 124.5004 0000871 111.2702 248.8409 15.69721287107481","mean_motion":15.69721287,"eccentricity":8.71e-5,"inclination_deg":53.1575,"raan_deg":124.5004,"arg_perigee_deg":111.2702,"mean_anomaly_deg":248.8409,"bstar":0.0015375,"rev_number":10748,"period_min":91.736030588722,"perigee_km":359.10758642032,"apogee_km":360.28131665918,"semimajor_km":6737.8314515398,"source":"CELESTRAK","updated_at":"2026-09-22T09:00:49.454532Z"}}